Details From LPMA - Madeira
To LPFR - Faro
Flight Number -
Tags decoded
Created
Modified
Stats Distance 505 nm / 935 km
Max Altitude 0 ft / 0 m
Waypoints 2
Social Downloads 0
Likes 0
Share VATSIM

Download

Looking for another format? Having issues loading an existing format? Contact us
Advertisement - Login to hide

Notes

Requested: LPMA LPFR

Route

LPMA LPFR

ID Type Via Altitude Latitude Longitude Leg Dist Tot Dist Heading (true) Name
O LPMA APT - 0 ft / 0 m 32.69770˚ -16.77445˚ - 0 nm - Madeira
O LPFR APT - 0 ft / 0 m 37.01534˚ -7.97233˚ 505 nm 505 nm 57° / 62° Faro

Altitude Profile

Advertisement - Login to hide

Weather


0- 5 10 15 20 25 30 35+ Temperature / ° C

Clouds and Precipitation
Forecast for 2018-05-22 12:00 UTC. Updated 5 hours ago

Ground ~20,000 ft ~40,000 ft Winds

LPMA

Details ICAO LPMA (FNC)
Name Madeira
Region Portugal
Timezone Atlantic/Madeira (UTC+1.0)
Stats Elevation 192 ft / 59 m (AMSL)
Location 32.697704° -16.774449°
Runways 1
Magnetic Variation 4.928° W

METAR

LPMA 221530Z 36012G24KT 320V050 9999 FEW015 SCT033 20/08 Q1016

Decode

TAF

TAF LPMA 221100Z 2212/2312 36013KT 9999 SCT015 PROB40 TEMPO 2212/2221 35018G28KT SCT015 BKN030 TEMPO 2221/2303 VRB05KT BECMG 2303/2306 VRB05KT SCT015 BKN030

Decode

Departure Runways

ID Width Length Bearing (true) Bearing (mag) Surface Threshold Offset Overrun Length
05 141 ft / 43 m 8,683 ft / 2,647 m 42.98° 47.91° Asphalt 472 ft / 144 m 0 ft / 0 m
23 141 ft / 43 m 8,683 ft / 2,647 m 222.99° 227.92° Asphalt 466 ft / 142 m 0 ft / 0 m

LPFR

Details ICAO LPFR (FAO)
Name Faro
Region Portugal
Timezone Europe/Lisbon (UTC+1.0)
Stats Elevation 24 ft / 7 m (AMSL)
Location 37.015336° -7.972327°
Runways 1
Magnetic Variation 1.884° W

METAR

LPFR 221530Z 22006KT 160V280 9999 FEW023 20/13 Q1014

Decode

TAF

TAF LPFR 221100Z 2212/2312 20007KT 9999 BKN030 BECMG 2212/2215 24010KT FEW035 BECMG 2218/2220 28007KT SCT025 BECMG 2222/2224 33005KT CAVOK BECMG 2309/2312 24008KT

Decode

Destination Runways

ID Width Length Bearing (true) Bearing (mag) Surface Threshold Offset Overrun Length
10 148 ft / 45 m 8,148 ft / 2,484 m 100.08° 101.96° Asphalt 148 ft / 45 m 0 ft / 0 m
28 148 ft / 45 m 8,148 ft / 2,484 m 280.10° 281.98° Asphalt 148 ft / 45 m 0 ft / 0 m

Approach Navaids

Runway Type Ident Frequency Range Bearing (true) Bearing (mag) Slope Elevation
28 Localiser IIF 109.50 MHz 18 nm / 33 km 280.16° 282.05° - 24 ft / 7 m (AMSL)
28 Glidescope IIF 109.50 MHz 10 nm / 19 km 280.09° 281.97° 3.00° 24 ft / 7 m (AMSL)
28 DME IIF 109.50 MHz 18 nm / 33 km - - - 24 ft / 7 m (AMSL)

Popular Alternatives